Waarnemingen

Advertentie
Mijn weer
Lecce, Italië (16332): temperatuur & dauwpunt: 13.06.2018 02:00:00 - 19.06.2018 02:00:00 (CEST)Lecce, Italië (16332): windsnelheid: 13.06.2018 02:00:00 - 19.06.2018 02:00:00 (CEST)Lecce, Italië (16332): windrichting: 13.06.2018 02:00:00 - 19.06.2018 02:00:00 (CEST)Lecce, Italië (16332): luchtdruk: 13.06.2018 02:00:00 - 19.06.2018 02:00:00 (CEST)Lecce, Italië (16332): zicht: 13.06.2018 02:00:00 - 19.06.2018 02:00:00 (CEST)
Datum & Tijd tt [°C] td [°C] ff [km/u] ff [kn] dd ppp [hPa] vv [km]
19.06.2018 02:00:00 - - - - - - -
19.06.2018 01:00:00 23,0 22,0 4 2 NNW - 10
19.06.2018 00:00:00 23,0 22,0 5 3 NNW - 10
18.06.2018 23:00:00 22,6 21,1 9 5 N 1011,4 10
18.06.2018 22:00:00 23,0 22,0 9 5 N - 10
18.06.2018 21:00:00 24,0 20,0 13 7 N - 10
18.06.2018 20:00:00 25,0 19,2 16 9 N 1010,9 10
18.06.2018 19:00:00 26,0 18,0 21 11 N - 10
18.06.2018 18:00:00 28,0 20,0 21 11 N - 10
18.06.2018 17:00:00 28,4 19,4 18 10 N 1010,1 10
18.06.2018 16:00:00 28,0 20,0 13 7 N - 10
18.06.2018 15:00:00 - - - - - - -
18.06.2018 14:00:00 27,6 20,2 15 8 NNW 1010,5 10
18.06.2018 13:00:00 - - - - - - -
18.06.2018 12:00:00 - - - - - - -
18.06.2018 11:00:00 26,8 20,4 16 9 N 1010,6 10
18.06.2018 10:00:00 25,0 19,0 18 10 NNW - 10
18.06.2018 09:00:00 24,0 20,0 18 10 N - 10
18.06.2018 08:00:00 22,2 18,4 15 8 NW 1010,7 10
18.06.2018 07:00:00 20,0 18,0 9 5 NW - 10
18.06.2018 06:00:00 18,0 17,0 0 0 N - 10
18.06.2018 05:00:00 17,8 17,0 0 0 N 1010,8 10
18.06.2018 04:00:00 19,0 18,0 0 0 N - 10
18.06.2018 03:00:00 20,0 19,0 0 0 N - 10
18.06.2018 02:00:00 19,8 19,0 8 4 W 1011,0 10
18.06.2018 01:00:00 20,0 19,0 4 2 - - 10
18.06.2018 00:00:00 20,0 19,0 4 2 - - 10
17.06.2018 23:00:00 20,0 18,8 8 4 WNW 1011,4 10
17.06.2018 22:00:00 21,0 20,0 8 4 NW - 10
17.06.2018 21:00:00 23,0 20,0 5 3 N - 10
17.06.2018 20:00:00 24,6 17,8 11 6 N 1010,5 10
17.06.2018 19:00:00 25,0 18,0 15 8 N - 10
17.06.2018 18:00:00 28,0 18,0 18 10 N - 10
17.06.2018 17:00:00 27,8 17,7 21 11 NNW 1009,7 10
17.06.2018 16:00:00 27,0 18,0 11 6 NW - 10
17.06.2018 15:00:00 24,0 19,0 18 10 ZW - 10
17.06.2018 14:00:00 26,6 18,5 16 9 N 1010,2 10
17.06.2018 13:00:00 26,0 18,0 22 12 N - 10
17.06.2018 12:00:00 26,0 19,0 18 10 N - 10
17.06.2018 11:00:00 25,8 18,5 18 10 N 1010,4 10
17.06.2018 10:00:00 25,0 18,0 21 11 NNW - 10
17.06.2018 09:00:00 23,0 18,0 8 4 NNW - 10
17.06.2018 08:00:00 18,6 17,3 4 2 N 1010,4 10
17.06.2018 07:00:00 18,0 17,0 5 3 - - 10
17.06.2018 06:00:00 18,0 17,0 8 4 W - 10
17.06.2018 05:00:00 18,8 16,8 9 5 W 1010,2 10
17.06.2018 04:00:00 19,0 18,0 11 6 W - 10
17.06.2018 03:00:00 19,0 17,0 13 7 W - 10
17.06.2018 02:00:00 19,2 17,9 9 5 W 1010,4 10
17.06.2018 01:00:00 19,0 18,0 11 6 W - 10
17.06.2018 00:00:00 20,0 18,0 4 2 - - 10
16.06.2018 23:00:00 20,4 18,7 8 4 WNW 1010,2 10
16.06.2018 22:00:00 20,0 19,0 9 5 WNW - 10
16.06.2018 21:00:00 22,0 19,0 13 7 NNW - 10
16.06.2018 20:00:00 22,6 16,9 18 10 NNW 1008,2 10
16.06.2018 19:00:00 24,0 17,0 22 12 NNW - 10
16.06.2018 18:00:00 25,0 16,0 29 16 NNW - 10
16.06.2018 17:00:00 25,6 15,9 26 14 NNW 1007,1 10
16.06.2018 16:00:00 25,0 18,0 29 16 NNW - 10
16.06.2018 15:00:00 25,0 18,0 29 16 NNW - 10
16.06.2018 14:00:00 25,2 19,4 22 12 NNW 1007,6 10
16.06.2018 13:00:00 26,0 20,0 29 16 NNW - 10
16.06.2018 12:00:00 26,0 18,0 31 17 N - 10
16.06.2018 11:00:00 23,8 18,2 31 17 N 1007,3 10
16.06.2018 10:00:00 24,0 21,0 18 10 NNW - 10
16.06.2018 09:00:00 21,0 19,0 11 6 NNW - 10
16.06.2018 08:00:00 19,8 17,8 18 10 NNW 1006,5 10
16.06.2018 07:00:00 19,0 17,0 18 10 NNW - 10
16.06.2018 06:00:00 17,0 16,0 22 12 NW - 4,0
16.06.2018 05:00:00 20,2 18,2 15 8 NW 1005,9 10
16.06.2018 04:00:00 20,0 18,0 13 7 NW - 10
16.06.2018 03:00:00 20,0 19,0 16 9 NW - 10
16.06.2018 02:00:00 20,8 18,5 15 8 WNW 1006,7 10
16.06.2018 01:00:00 20,0 18,0 9 5 WNW - 10
16.06.2018 00:00:00 20,0 18,0 11 6 NW - 10
15.06.2018 23:00:00 20,4 18,5 13 7 NNW 1006,5 10
15.06.2018 22:00:00 21,0 19,0 15 8 NNW - 10
15.06.2018 21:00:00 22,0 20,0 18 10 NNW - 10
15.06.2018 20:00:00 23,0 19,0 22 12 NNW 1006,4 10
15.06.2018 19:00:00 24,0 18,0 16 9 NNW - 10
15.06.2018 18:00:00 24,0 16,0 18 10 N - 10
15.06.2018 17:00:00 22,0 15,6 4 2 N 1006,1 10
15.06.2018 16:00:00 25,0 17,0 21 11 N - 10
15.06.2018 15:00:00 25,0 19,0 22 12 N - 10
15.06.2018 14:00:00 24,4 16,7 18 10 N 1005,1 10
15.06.2018 13:00:00 25,0 18,0 - - - - 10
15.06.2018 12:00:00 24,0 18,0 - - - - 10
15.06.2018 11:00:00 21,6 17,6 0 0 N 1005,5 10
15.06.2018 10:00:00 20,0 18,0 - - - - 10
15.06.2018 09:00:00 17,0 16,0 - - - - 7
15.06.2018 08:00:00 18,0 16,0 9 5 N 1005,1 10
15.06.2018 07:00:00 17,0 16,0 - - - - 10
15.06.2018 06:00:00 16,0 14,0 - - - - 10
15.06.2018 05:00:00 16,0 14,0 0 0 N 1005,0 10
15.06.2018 04:00:00 16,0 14,0 - - - - 10
15.06.2018 03:00:00 17,0 14,0 - - - - 10
15.06.2018 02:00:00 17,0 14,7 5 3 NW 1005,2 10
15.06.2018 01:00:00 17,0 15,0 - - - - 10
15.06.2018 00:00:00 18,0 16,0 - - - - 10
14.06.2018 23:00:00 19,4 18,9 9 5 WZW 1005,2 10
14.06.2018 22:00:00 19,0 16,0 - - - - 7
14.06.2018 21:00:00 20,0 20,0 9 5 OZO - 7
14.06.2018 20:00:00 20,0 18,0 18 10 NO 1004,4 4,0
14.06.2018 19:00:00 24,0 20,0 15 8 NNW - 10
14.06.2018 18:00:00 24,0 18,0 11 6 NNW - 10
14.06.2018 17:00:00 23,6 17,6 5 3 WNW 1004,3 10
14.06.2018 16:00:00 22,0 18,0 8 4 NNW - 10
14.06.2018 15:00:00 21,0 19,0 2 1 - - 10
14.06.2018 14:00:00 20,0 19,2 4 2 N 1004,1 10
14.06.2018 13:00:00 19,0 18,0 5 3 WZW - 10
14.06.2018 12:00:00 27,0 19,0 11 6 NO - 10
14.06.2018 11:00:00 27,0 19,4 11 6 ONO 1003,7 10
14.06.2018 10:00:00 25,0 20,0 15 8 NO - 10
14.06.2018 09:00:00 25,0 19,0 18 10 NNO - 10
14.06.2018 08:00:00 23,4 20,2 13 7 NNO 1003,7 10
14.06.2018 07:00:00 21,0 19,0 8 4 NW - 10
14.06.2018 06:00:00 19,0 18,0 5 3 NW - 10
14.06.2018 05:00:00 17,8 16,8 8 4 NW 1003,6 10
14.06.2018 04:00:00 19,0 18,0 8 4 WZW - 10
14.06.2018 03:00:00 19,0 18,0 5 3 Z - 10
14.06.2018 02:00:00 19,6 18,6 9 5 Z 1004,1 10
14.06.2018 01:00:00 20,0 19,0 4 2 Z - 10
14.06.2018 00:00:00 22,0 19,0 5 3 O - 10
13.06.2018 23:00:00 23,4 20,0 13 7 WZW 1004,5 10
13.06.2018 22:00:00 23,0 19,0 8 4 ZZW - 10
13.06.2018 21:00:00 24,0 18,0 4 2 WNW - 10
13.06.2018 20:00:00 25,0 18,7 13 7 WZW 1004,3 10
13.06.2018 19:00:00 28,0 16,0 18 10 W - 10
13.06.2018 18:00:00 28,0 17,0 18 10 ZW - 10
13.06.2018 17:00:00 28,8 18,3 22 12 WZW 1004,5 10
13.06.2018 16:00:00 29,0 17,0 9 5 ZW - 10
13.06.2018 15:00:00 29,0 18,0 11 6 N - 10
13.06.2018 14:00:00 27,0 16,9 22 12 W 1006,4 10
13.06.2018 13:00:00 29,0 17,0 26 14 WZW - 10
13.06.2018 12:00:00 29,0 16,0 22 12 WZW - 10
13.06.2018 11:00:00 28,2 15,2 13 7 W 1006,8 10
13.06.2018 10:00:00 27,0 16,0 21 11 WNW - 10
13.06.2018 09:00:00 27,0 17,0 15 8 WNW - 10
13.06.2018 08:00:00 25,6 20,0 11 6 NNW 1006,8 10
13.06.2018 07:00:00 24,0 21,0 9 5 NW - 10
13.06.2018 06:00:00 22,0 21,0 11 6 NNW - 10
13.06.2018 05:00:00 22,0 20,1 9 5 NW 1006,2 10
13.06.2018 04:00:00 22,0 20,0 5 3 W - 10
13.06.2018 03:00:00 22,0 21,0 5 3 Z - 10
13.06.2018 02:00:00 22,2 20,7 5 3 Z 1006,8 10

tt = temperatuur
td = dauwpunt
ff = windsnelheid
dd = windrichting
ppp = luchtdruk
vv = zicht

Weerstations in de omgeving